When you browse on this site, cookies collect data to enhance your experience and personalize the content and advertising you see.
Visit our Privacy Policy to learn more. By continuing to use the site, you agree to this use of cookies and data.
  • en Belgique
  • Liste des pays
  • À 7 jours
  • Température de l'eau
  • Carte météo
  • Widgets météo
  • user-avatar
    Se connecter

    Météo par heure à Townsville

    Ce jour, 13 Décembre, Vendredi

    Heure Température Précipitation Vent Pression Humidité
    00:00 +26°C° 0 mm 2 m/s 751 mmHg 86%
    01:00 +26°C° 0 mm 1 m/s 751 mmHg 87%
    02:00 +25°C° 0 mm 1 m/s 751 mmHg 88%
    03:00 +25°C° 0 mm 2 m/s 750 mmHg 89%
    04:00 +25°C° 0 mm 1 m/s 750 mmHg 90%
    05:00 +26°C° 0 mm 1 m/s 751 mmHg 86%
    06:00 +27°C° 0 mm 1 m/s 751 mmHg 81%
    07:00 +28°C° 0 mm 1 m/s 751 mmHg 76%
    08:00 +30°C° 0 mm 1 m/s 751 mmHg 66%
    09:00 +32°C° 0 mm 2 m/s 751 mmHg 56%
    10:00 +35°C° 0 mm 2 m/s 751 mmHg 46%
    11:00 +36°C° 0 mm 3 m/s 751 mmHg 45%
    12:00 +36°C° 0 mm 3 m/s 750 mmHg 45%
    13:00 +37°C° 0 mm 3 m/s 750 mmHg 44%
    14:00 +36°C° 0 mm 4 m/s 749 mmHg 46%
    15:00 +35°C° 0 mm 4 m/s 749 mmHg 48%
    16:00 +34°C° 0 mm 4 m/s 748 mmHg 50%
    17:00 +32°C° 0 mm 4 m/s 748 mmHg 58%
    18:00 +30°C° 0 mm 4 m/s 749 mmHg 66%
    19:00 +28°C° 0 mm 3 m/s 749 mmHg 74%
    20:00 +27°C° 0 mm 3 m/s 750 mmHg 78%
    21:00 +27°C° 0 mm 3 m/s 750 mmHg 82%
    22:00 +26°C° 0 mm 2 m/s 750 mmHg 87%
    23:00 +26°C° 0 mm 3 m/s 750 mmHg 87%

    Demain, 14 Décembre, Samedi

    Heure Température Précipitation Vent Pression Humidité
    00:00 +26°C° 0 mm 3 m/s 750 mmHg 88%
    01:00 +26°C° 0 mm 3 m/s 750 mmHg 89%
    02:00 +26°C° 0 mm 3 m/s 750 mmHg 89%
    03:00 +26°C° 0 mm 3 m/s 750 mmHg 89%
    04:00 +26°C° 0 mm 3 m/s 750 mmHg 89%
    05:00 +27°C° 0 mm 3 m/s 750 mmHg 84%
    06:00 +28°C° 0 mm 3 m/s 751 mmHg 80%
    07:00 +28°C° 0 mm 3 m/s 751 mmHg 76%
    08:00 +30°C° 0 mm 3 m/s 751 mmHg 69%
    09:00 +31°C° 0 mm 3 m/s 751 mmHg 62%
    10:00 +34°C° 0 mm 4 m/s 751 mmHg 55%
    11:00 +34°C° 0 mm 4 m/s 750 mmHg 53%
    12:00 +35°C° 0 mm 4 m/s 750 mmHg 51%
    13:00 +35°C° 0 mm 4 m/s 749 mmHg 49%
    14:00 +35°C° 0 mm 4 m/s 748 mmHg 50%
    15:00 +34°C° 0 mm 4 m/s 748 mmHg 52%
    16:00 +34°C° 0 mm 4 m/s 747 mmHg 53%
    17:00 +32°C° 0 mm 4 m/s 748 mmHg 61%
    18:00 +30°C° 0 mm 3 m/s 748 mmHg 69%
    19:00 +28°C° 0 mm 3 m/s 748 mmHg 77%
    20:00 +28°C° 0 mm 3 m/s 749 mmHg 79%
    21:00 +27°C° 0 mm 3 m/s 750 mmHg 82%
    22:00 +27°C° 0 mm 3 m/s 750 mmHg 84%
    23:00 +27°C° 0 mm 3 m/s 750 mmHg 85%

    Après-demain, 15 Décembre, Dimanche

    Heure Température Précipitation Vent Pression Humidité
    00:00 +27°C° 0 mm 3 m/s 750 mmHg 86%
    01:00 +27°C° 0 mm 3 m/s 749 mmHg 87%
    02:00 +26°C° 0 mm 3 m/s 749 mmHg 88%
    03:00 +26°C° 0 mm 3 m/s 749 mmHg 89%
    04:00 +26°C° 0 mm 4 m/s 749 mmHg 90%
    05:00 +27°C° 0 mm 3 m/s 749 mmHg 86%
    06:00 +28°C° 0 mm 3 m/s 750 mmHg 82%
    07:00 +28°C° 0 mm 3 m/s 750 mmHg 78%
    08:00 +30°C° 0 mm 3 m/s 750 mmHg 71%
    09:00 +32°C° 0 mm 4 m/s 750 mmHg 64%
    10:00 +34°C° 0 mm 4 m/s 750 mmHg 57%
    11:00 +34°C° 0 mm 4 m/s 750 mmHg 56%
    12:00 +34°C° 0 mm 5 m/s 749 mmHg 55%
    13:00 +34°C° 0 mm 5 m/s 749 mmHg 55%
    14:00 +34°C° 0 mm 5 m/s 748 mmHg 56%
    15:00 +33°C° 0 mm 5 m/s 748 mmHg 58%
    16:00 +33°C° 0 mm 4 m/s 748 mmHg 60%
    17:00 +30°C° 0 mm 4 m/s 748 mmHg 66%
    18:00 +29°C° 0 mm 4 m/s 749 mmHg 71%
    19:00 +28°C° 0 mm 3 m/s 749 mmHg 77%
    20:00 +28°C° 0 mm 4 m/s 750 mmHg 78%
    21:00 +28°C° 0 mm 4 m/s 750 mmHg 79%
    22:00 +28°C° 0 mm 5 m/s 751 mmHg 80%
    23:00 +27°C° 0 mm 4 m/s 750 mmHg 83%

    16 Décembre, Lundi

    Heure Température Précipitation Vent Pression Humidité
    00:00 +27°C° 0 mm 4 m/s 750 mmHg 85%
    01:00 +26°C° 0 mm 3 m/s 750 mmHg 87%
    02:00 +26°C° 0 mm 3 m/s 750 mmHg 88%
    03:00 +26°C° 0 mm 3 m/s 750 mmHg 89%
    04:00 +26°C° 0 mm 3 m/s 750 mmHg 89%
    05:00 +27°C° 0 mm 3 m/s 750 mmHg 84%
    06:00 +28°C° 0 mm 3 m/s 751 mmHg 79%
    07:00 +28°C° 0 mm 3 m/s 751 mmHg 74%
    08:00 +30°C° 0 mm 3 m/s 751 mmHg 66%
    09:00 +31°C° 0 mm 3 m/s 751 mmHg 59%
    10:00 +34°C° 0 mm 3 m/s 751 mmHg 51%
    11:00 +35°C° 0 mm 3 m/s 751 mmHg 49%
    12:00 +35°C° 0 mm 3 m/s 750 mmHg 47%
    13:00 +36°C° 0 mm 4 m/s 750 mmHg 45%
    14:00 +36°C° 0 mm 4 m/s 749 mmHg 46%
    15:00 +35°C° 0 mm 4 m/s 749 mmHg 48%
    16:00 +35°C° 0 mm 4 m/s 748 mmHg 49%
    17:00 +33°C° 0 mm 4 m/s 749 mmHg 57%
    18:00 +30°C° 0 mm 3 m/s 749 mmHg 65%
    19:00 +28°C° 0 mm 2 m/s 749 mmHg 74%
    20:00 +27°C° 0 mm 2 m/s 750 mmHg 77%
    21:00 +27°C° 0 mm 2 m/s 750 mmHg 81%
    22:00 +26°C° 0 mm 2 m/s 751 mmHg 85%
    23:00 +26°C° 0 mm 2 m/s 750 mmHg 86%

    17 Décembre, Mardi

    Heure Température Précipitation Vent Pression Humidité
    00:00 +26°C° 0 mm 2 m/s 750 mmHg 87%
    01:00 +26°C° 0 mm 2 m/s 750 mmHg 89%
    02:00 +26°C° 0 mm 2 m/s 750 mmHg 89%
    03:00 +25°C° 0 mm 2 m/s 749 mmHg 90%
    04:00 +25°C° 0 mm 2 m/s 749 mmHg 91%
    05:00 +26°C° 0 mm 2 m/s 750 mmHg 85%
    06:00 +27°C° 0 mm 2 m/s 750 mmHg 80%
    07:00 +28°C° 0 mm 2 m/s 751 mmHg 75%
    08:00 +30°C° 0 mm 2 m/s 751 mmHg 66%
    09:00 +33°C° 0 mm 3 m/s 751 mmHg 57%
    10:00 +34°C° 0 mm 3 m/s 751 mmHg 48%
    11:00 +34°C° 0 mm 3 m/s 751 mmHg 47%
    12:00 +35°C° 0 mm 4 m/s 751 mmHg 46%
    13:00 +35°C° 0 mm 4 m/s 750 mmHg 45%
    14:00 +34°C° 0 mm 4 m/s 750 mmHg 48%
    15:00 +33°C° 0 mm 4 m/s 750 mmHg 50%
    16:00 +33°C° 0 mm 4 m/s 749 mmHg 52%
    17:00 +30°C° 0 mm 4 m/s 750 mmHg 60%
    18:00 +29°C° 0 mm 4 m/s 750 mmHg 67%
    19:00 +28°C° 0 mm 4 m/s 751 mmHg 75%
    20:00 +27°C° 0 mm 4 m/s 751 mmHg 77%
    21:00 +27°C° 0 mm 4 m/s 752 mmHg 79%
    22:00 +27°C° 0 mm 4 m/s 752 mmHg 81%
    23:00 +27°C° 0 mm 4 m/s 752 mmHg 82%

    18 Décembre, Mercredi

    Heure Température Précipitation Vent Pression Humidité
    00:00 +26°C° 0 mm 4 m/s 752 mmHg 83%
    01:00 +26°C° 0 mm 4 m/s 751 mmHg 83%
    02:00 +26°C° 0 mm 4 m/s 751 mmHg 84%
    03:00 +26°C° 0 mm 4 m/s 751 mmHg 85%
    04:00 +26°C° 0 mm 3 m/s 751 mmHg 85%
    05:00 +26°C° 0.3 mm 3 m/s 752 mmHg 84%
    06:00 +27°C° 0.3 mm 4 m/s 752 mmHg 83%
    07:00 +27°C° 0.3 mm 4 m/s 753 mmHg 81%
    08:00 +28°C° 0.7 mm 5 m/s 753 mmHg 76%
    09:00 +29°C° 0.7 mm 6 m/s 753 mmHg 71%
    10:00 +30°C° 0.7 mm 7 m/s 753 mmHg 65%
    11:00 +32°C° 0 mm 7 m/s 752 mmHg 60%
    12:00 +33°C° 0 mm 7 m/s 752 mmHg 54%
    13:00 +34°C° 0 mm 8 m/s 751 mmHg 49%
    14:00 +34°C° 0 mm 8 m/s 751 mmHg 50%
    15:00 +33°C° 0 mm 8 m/s 750 mmHg 51%
    16:00 +32°C° 0 mm 8 m/s 750 mmHg 52%
    17:00 +31°C° 0 mm 8 m/s 751 mmHg 57%
    18:00 +28°C° 0 mm 7 m/s 751 mmHg 61%
    19:00 +27°C° 0 mm 7 m/s 752 mmHg 66%
    20:00 +26°C° 0 mm 6 m/s 752 mmHg 68%
    21:00 +26°C° 0 mm 6 m/s 753 mmHg 71%
    22:00 +25°C° 0 mm 5 m/s 753 mmHg 73%
    23:00 +25°C° 0 mm 5 m/s 753 mmHg 75%
    Voir plus